Location: Kitchener
(43.4500°N, 80.5000°W)
Time: 05:51:08
(UTC-04:00)

Daily predictions for brighter satellites

Satellite Brightness Start Highest point End
(mag) Time Altitude Azimuth Time Altitude Azimuth Time Altitude Azimuth
Cosmos 2315 Rocket 4.2 00:13:51 58° NE 00:13:51 58° NE 00:19:09 10° NNE
NOSS 3-1 (C) 3.8 00:13:49 52° W 00:14:52 59° NW 00:21:23 10° NNE
NOSS 0 Rocket 4.1 00:15:35 68° WNW 00:15:41 68° WNW 00:21:50 10° NNE
H-2A R/B 4.4 00:17:51 17° WNW 00:17:51 17° WNW 00:19:51 10° NW
ALOS 2 4.4 00:23:08 28° NNE 00:23:08 28° NNE 00:25:27 10° N
Cosmos 2333 Rocket 2.8 00:21:21 51° WNW 00:21:37 51° WNW 00:27:15 10° NNE
Cosmos 2237 Rocket 2.6 00:26:24 59° NNW 00:26:24 59° NNW 00:31:29 10° NNE
Cosmos 2278 Rocket 3.1 00:23:35 10° NW 00:27:48 41° WNW 00:27:48 41° WNW
NOSS 3-1 (A) 3.7 00:29:36 62° WNW 00:29:50 63° NW 00:36:24 10° NNE
ATLAS 2AS CENTAUR R/B 3.7 00:32:49 39° E 00:32:49 39° E 00:38:45 10° NE
CZ-2C R/B 3.6 00:36:30 10° NNE 00:40:15 42° NE 00:40:15 42° NE
Cosmos 2184 Rocket 4.4 00:39:34 10° N 00:45:12 54° NE 00:45:12 54° NE
Cosmos 1709 Rocket 4.4 00:44:39 10° NNW 00:50:20 56° WNW 00:50:20 56° WNW
Cosmos 2219 Rocket 4.0 00:53:26 20° W 00:55:21 24° NW 00:59:53 10° N
ATLAS 3B R/B 3.0 00:58:59 10° NNW 01:05:43 56° NE 01:06:04 55° ENE
Cosmos 2074 Rocket 4.3 01:12:29 10° N 01:17:40 63° NNW 01:17:40 63° NNW
USA 238 DEB 4.2 01:15:44 10° NNW 01:22:40 55° NE 01:23:52 50° E
USA 238 4.2 01:15:50 10° NNW 01:22:46 55° NE 01:24:00 49° E
Cosmos 2154 Rocket 4.4 01:18:40 10° N 01:24:12 57° NE 01:24:12 57° NE
Cosmos 2369 Rocket 3.2 01:21:21 10° NNW 01:26:15 40° NE 01:26:15 40° NE
Cosmos 1607 4.2 01:25:03 10° NNW 01:30:26 65° NNW 01:30:26 65° NNW
USA 215 4.0 01:35:05 10° ENE 01:39:38 41° E 01:39:38 41° E
Cosmos 1943 Rocket 3.5 01:40:36 10° N 01:45:39 32° NE 01:46:25 31° ENE
SL-16 R/B 3.4 01:46:54 35° NW 01:46:54 35° NW 01:51:55 10° N
Cosmos 1238 Rocket 4.4 01:51:04 46° N 01:51:04 46° N 01:55:08 10° N
ATLAS CENTAUR R/B 3.8 02:08:06 19° NNW 02:08:06 19° NNW 02:10:06 10° N
Cosmos 2181 Rocket 4.1 02:08:48 73° ENE 02:08:48 73° ENE 02:14:51 10° N
Cosmos 2218 Rocket 4.4 02:04:34 10° N 02:10:38 52° ENE 02:10:48 52° E
USA 267 4.2 02:08:25 10° E 02:14:34 45° NNE 02:20:44 10° NW
NOSS 3-4 (A) 4.4 02:22:20 37° E 02:22:20 37° E 02:27:32 10° NE
CZ-2C R/B 4.5 02:17:48 10° NNW 02:21:46 21° WNW 02:21:47 21° WNW
NOSS 3-4 (C) 4.4 02:22:26 37° E 02:22:26 37° E 02:27:39 10° NE
ATLAS 2AS CENTAUR R/B 3.5 02:20:13 44° W 02:22:12 53° NW 02:30:10 10° NNE
SL-8 Rocket 4.0 02:20:30 10° N 02:26:20 78° NE 02:26:20 78° NE
Meteor 2-4 Rocket 4.5 02:30:17 41° NW 02:30:17 41° NW 02:34:26 10° N
NOSS 3-2 (A) 4.0 02:27:49 10° NW 02:35:18 77° NE 02:38:59 36° SE
Cosmos 773 Rocket 4.5 02:40:19 57° NE 02:40:19 57° NE 02:44:33 10° NNE
Cosmos 1943 3.5 02:43:07 61° NNW 02:43:07 61° NNW 02:48:13 10° NNE
Cosmos 2228 4.4 02:42:32 10° N 02:45:12 36° N 02:45:12 36° N
Aureole 1 Rocket 4.3 02:51:19 42° E 02:51:19 42° E 02:54:54 10° NE
ATLAS 3B R/B 4.0 02:50:15 10° NW 02:53:17 23° WNW 02:53:17 23° WNW
NPP 3.8 02:57:43 10° NNE 03:03:06 65° ESE 03:03:10 65° ESE
Lacrosse 5 rocket 3.9 03:05:58 16° ESE 03:05:58 16° ESE 03:08:01 10° E
Resurs 1-4 Rocket 3.4 03:02:41 10° NE 03:07:19 30° E 03:08:31 27° ESE
Cosmos 1809 Rocket 4.4 03:03:22 10° NNW 03:09:24 68° W 03:09:24 68° W
Cosmos 2369 Rocket 3.8 03:05:39 10° NW 03:08:01 22° WNW 03:08:01 22° WNW
SL-08 R/B 3.5 03:12:21 68° N 03:12:21 68° N 03:16:34 10° NNW
CZ-2D R/B 3.2 03:12:43 10° NNE 03:17:37 36° E 03:18:55 32° SE
IRS-P3 Rocket 4.5 03:14:16 10° NNE 03:19:42 89° ESE 03:19:55 83° S
Cosmos 1812 Rocket 3.9 03:16:06 10° N 03:19:57 63° NNE 03:19:57 63° NNE
Cosmos 1680 Rocket 3.4 03:23:12 83° SSE 03:23:21 85° ESE 03:28:39 10° NNE
CBERS-1 3.8 03:18:51 10° NNE 03:23:59 89° E 03:24:07 86° S
USA 215 3.7 03:18:06 10° NE 03:24:28 55° NNW 03:26:58 36° W
RESURS DK-1 3.1 03:25:43 48° ENE 03:25:43 48° ENE 03:29:06 10° NE
COSMOS 2455 2.8 03:20:24 10° NNW 03:26:28 85° ENE 03:29:08 35° SSE
Cosmos 1842 4.2 03:28:16 45° ENE 03:28:16 45° ENE 03:31:32 10° NNE
Cosmos 1943 Rocket 3.1 03:24:13 10° NW 03:27:55 34° WNW 03:27:55 34° WNW
Cosmos 1766 4.0 03:25:32 10° N 03:28:34 50° N 03:28:34 50° N
ADEOS 4.3 03:24:50 10° NNE 03:29:52 47° E 03:31:11 38° SE
Meteor 1-4 Rocket 3.8 03:29:16 10° N 03:31:49 40° N 03:31:49 40° N
Cosmos 192 4.4 03:35:33 63° SE 03:35:59 67° ESE 03:40:53 10° NNE
COSMOS 2406 3.3 03:35:40 55° S 03:36:48 70° ESE 03:42:32 10° NNE
IRS-1D 4.0 03:31:54 10° NNE 03:37:03 57° E 03:38:24 44° SSE
Meteor 1-22 Rocket 4.0 03:34:08 10° NNW 03:39:38 65° W 03:39:55 64° WSW
Meteor 2-8 Rocket 4.4 03:41:08 47° S 03:43:01 83° E 03:49:11 10° N
SL-27 R/B 3.5 03:43:36 44° ENE 03:43:36 44° ENE 03:46:36 10° NNE
Cosmos 1066 Rocket 4.5 03:44:24 45° W 03:44:37 45° WNW 03:49:46 10° N
NOSS 3-2 (C) 4.0 03:37:53 10° NW 03:45:16 58° WSW 03:50:12 24° S
ARIANE 5 R/B 2.7 03:43:01 10° NNE 03:48:15 67° ESE 03:49:48 44° SSE
Cosmos 1821 Rocket 3.9 03:42:08 10° N 03:48:17 84° E 03:51:19 32° SSE
Cosmos 1626 Rocket 4.4 03:49:17 38° WNW 03:49:17 38° WNW 03:52:52 10° N
Cosmos 724 4.4 03:44:47 10° NW 03:50:39 51° WSW 03:50:52 51° WSW
COBE Rocket 4.4 03:46:21 10° NNE 03:51:22 57° E 03:53:04 37° SSE
IRS-1C 4.1 03:46:39 10° N 03:51:57 67° WNW 03:52:56 55° SW
Cosmos 1371 Rocket 4.0 03:48:32 10° NNW 03:53:56 89° WSW 03:56:34 31° SSE
SL-16 R/B 2.4 03:51:39 35° S 03:54:25 78° WSW 04:00:37 10° NNW
CENTAUR R/B 3.3 03:48:25 10° NW 03:56:15 74° NE 04:04:39 10° SE
ADEOS Rocket 3.1 03:50:54 10° NNE 03:56:57 81° ESE 04:00:02 34° S
USA 267 3.1 03:50:53 10° SE 03:57:23 68° SW 04:03:55 10° NW
Cosmos 2239 Rocket 4.3 03:52:30 10° N 03:58:42 80° W 04:01:34 34° S
Cosmos 1825 Rocket 3.5 03:58:07 62° S 03:58:49 83° E 04:03:15 10° N
Cosmos 1470 4.3 03:57:09 10° N 04:00:44 34° ENE 04:03:45 13° SE
Cosmos 1953 2.4 03:58:04 10° N 04:02:04 72° E 04:02:57 51° SSE
AQUA 4.3 03:58:59 10° N 04:03:28 42° WNW 04:03:55 40° W
GEOS 3 Rocket 3.6 03:58:55 10° NE 04:04:14 88° NW 04:05:55 46° SW
Cosmos 1535 Rocket 4.4 03:59:52 10° N 04:06:06 75° W 04:09:16 30° S
Cosmos 1605 Rocket 4.3 04:02:39 10° N 04:08:52 66° E 04:14:57 10° SSE
Cosmos 1818 4.1 04:07:00 32° S 04:09:13 51° ESE 04:14:30 10° NE
Cosmos 1934 Rocket 3.9 04:04:04 10° N 04:10:22 85° W 04:14:55 20° S
Cosmos 1656 Rocket 4.0 04:06:46 10° NW 04:11:47 40° WSW 04:11:50 40° WSW
NOSS 3-4 (A) 4.1 04:09:46 30° W 04:12:27 46° NW 04:18:45 10° NNE
NOSS 3-4 (C) 4.1 04:09:52 30° W 04:12:33 46° NW 04:18:52 10° NNE
Okean O Rocket 4.2 04:09:42 10° NE 04:12:33 17° E 04:15:21 10° SE
NOSS 2-2 (D) 3.8 04:11:50 45° S 04:12:46 58° ESE 04:17:18 10° NE
ADEOS II 4.4 04:09:30 10° NE 04:13:17 20° E 04:17:03 10° SE
Cosmos 839 Rocket 4.4 04:07:49 10° NNW 04:14:06 72° NE 04:21:25 10° SE
UNKNOWN OBJECT B 3.1 04:10:43 10° NNE 04:14:41 63° E 04:16:04 38° SSE
Cosmos 1758 3.3 04:14:31 10° NNW 04:18:34 63° W 04:19:10 55° SW
UNK 4.3 04:27:09 36° WSW 04:27:24 36° W 04:31:38 10° NNW
NOSS 2-2 (C) 3.4 04:29:42 41° SSW 04:31:07 88° ESE 04:35:49 10° NE
Tiangong 1 1.3 04:33:00 48° SE 04:33:00 48° SE 04:35:16 10° ESE
Abrixas 4.0 04:34:03 23° NW 04:34:57 28° N 04:37:29 10° ENE
Cosmos 1733 3.0 04:35:06 10° N 04:38:55 82° W 04:41:23 21° S
Cosmos 2098 Rocket 1.9 04:37:48 10° N 04:40:47 86° W 04:41:44 39° S
Cosmos 1697 Rocket 4.4 04:36:31 10° N 04:41:41 36° NE 04:46:48 10° ESE
Lacrosse 5 rocket 1.6 04:41:41 31° SW 04:43:53 83° NW 04:48:33 10° NE
Delta 2 Rocket 4.3 04:45:44 21° S 04:45:44 21° S 04:48:06 10° SE
Cosmos 2278 3.9 04:40:24 10° NNW 04:46:10 75° ENE 04:51:51 10° SSE
MOS 1 Rocket 3.1 04:41:49 10° NNE 04:46:10 84° ESE 04:49:34 17° S
Cosmos 389 Rocket 2.4 04:42:47 10° NNW 04:46:25 74° W 04:49:03 17° S
Resurs 1-4 Rocket 2.8 04:42:23 10° N 04:47:10 36° WNW 04:49:35 24° WSW
USA 161 1.6 04:48:14 43° SW 04:48:49 52° W 04:51:40 10° NNW
Cosmos 1271 Rocket 3.7 04:46:15 10° NW 04:49:21 25° W 04:49:21 25° W
Cosmos 1842 Rocket 4.4 04:45:23 10° N 04:49:42 53° E 04:54:01 10° SSE
Cosmos-2242 3.0 04:46:52 10° NNW 04:51:14 65° W 04:55:20 11° S
Cosmos 1758 Rocket 4.2 04:51:05 27° WSW 04:52:43 37° WNW 04:56:46 10° N
CZ-4B R/B 4.2 04:48:38 10° NNE 04:52:44 42° E 04:56:58 10° S
Cosmos 2369 3.8 04:47:53 10° NNW 04:53:40 83° ENE 04:59:24 10° SSE
CZ-2D R/B 3.1 04:52:59 10° N 04:57:35 31° WNW 05:00:15 20° WSW
Meteor 2-5 Rocket 3.8 04:52:59 10° S 04:58:41 85° E 05:04:32 10° NNE
MOS 1-B 4.3 04:53:44 10° NNE 04:59:35 88° WNW 05:05:23 10° SSW
Cosmos 921 Rocket 3.9 04:55:59 10° NW 04:59:56 31° W 05:02:20 19° SSW
Cosmos 2056 Rocket 4.3 04:55:25 10° NW 05:00:03 31° W 05:03:28 16° SSW
RESURS DK-1 4.4 05:01:38 13° W 05:03:27 16° NW 05:06:08 10° N
Cosmos 2061 Rocket 4.4 04:58:23 10° N 05:04:37 66° E 05:10:44 10° SSE
Cosmos 2221 4.3 05:06:41 10° N 05:10:38 35° ENE 05:14:33 10° SE
COSMOS 2455 4.3 05:08:11 10° WNW 05:11:34 16° WSW 05:12:09 15° WSW
Cosmos 2082 Rocket 2.5 05:09:06 10° SSW 05:14:45 68° ESE 05:20:26 10° NNE
Cosmos 1980 Rocket 3.8 05:10:04 10° NNW 05:15:24 40° ENE 05:20:42 10° SE
Cosmos 1727 Rocket 4.2 05:10:06 12° SSW 05:15:46 52° WNW 05:21:48 10° N
DNEPR-1 R/B 3.6 05:11:49 10° NW 05:15:55 50° WSW 05:20:14 10° SSE
Cosmos 1833 Rocket 3.1 05:10:28 10° S 05:15:59 64° ESE 05:21:33 10° NNE
Cosmos 1656 3.6 05:13:43 10° NNW 05:19:11 88° WSW 05:24:36 10° SSE
Cosmos 158 Rocket 4.4 05:16:47 10° S 05:21:42 64° ESE 05:26:48 10° NNE
CZ-4B R/B 3.5 05:16:40 10° NNE 05:22:03 68° ESE 05:27:19 10° S
PAYLOAD B 4.4 05:16:35 10° NNE 05:22:12 76° ESE 05:27:44 10° S
Orbus 7S? 2.4 05:20:27 10° NW 05:23:41 69° SW 05:26:14 10° SE
Cosmos 2016 Rocket 4.3 05:18:49 10° N 05:25:04 73° E 05:31:22 10° SSE
CZ-2C R/B 4.0 05:21:19 10° SSE 05:25:42 70° ENE 05:30:10 10° N
ARIANE 5 R/B 4.2 05:23:23 10° NNW 05:26:49 18° WNW 05:30:09 10° W
EXPRESS MD2 2.9 05:23:22 10° WNW 05:28:21 75° SSW 05:31:04 10° SE
Cosmos 1707 3.8 05:27:49 13° SW 05:30:40 28° WNW 05:34:04 10° NNW
Meteor 1-16 Rocket 4.3 05:29:20 10° NNW 05:34:30 48° W 05:39:33 10° SSW
Cosmos 1452 Rocket 4.1 05:30:23 10° NW 05:35:09 36° WSW 05:39:54 10° SSW
Cosmos 1470 4.4 05:34:02 10° NW 05:36:33 17° W 05:39:04 10° SW
Okean 3 Rocket 4.0 05:33:48 10° S 05:38:10 68° E 05:42:34 10° NNE
SL-16 R/B 4.2 05:37:07 10° WSW 05:38:59 11° W 05:40:52 10° WNW
Cosmos 1802 Rocket 4.1 05:33:54 10° NNW 05:40:20 74° W 05:46:41 10° S
USA 267 4.5 05:37:09 10° SSW 05:41:09 17° WSW 05:45:10 10° W
IRS-1C Rocket 4.1 05:38:44 10° N 05:44:01 75° WNW 05:49:15 10° SSW
CENTAUR R/B 3.8 05:39:52 10° NW 05:46:35 30° WSW 05:53:34 10° SSW
COSMOS 2487 3.8 05:44:02 10° WSW 05:47:03 25° WNW 05:50:05 10° N
Cosmos 1459 Rocket 4.1 05:42:22 10° NNW 05:48:19 54° W 05:54:21 10° SSW
Okean O Rocket 1.9 05:44:54 10° N 05:49:12 49° WNW 05:53:26 10° SW
Cosmos 1378 4.4 05:46:47 10° SW 05:49:53 24° WNW 05:53:00 10° NNW
SOZ 4.1 05:48:57 10° SW 05:51:07 87° SE 05:53:43 10° ENE
Cosmos 1420 Rocket 4.5 05:46:58 10° NW 05:51:55 40° WSW 05:56:48 10° S
ADEOS II 2.3 05:48:12 10° N 05:53:20 55° WNW 05:58:27 10° SSW
Cosmos 1725 Rocket 4.1 05:49:58 10° N 05:56:16 88° E 06:02:34 10° S
